[[{"header":{"parameterUnit":"m.s-1","parameterCategory":1,"la1":30.2991,"la2":30.254,"lo1":-89.0895,"lo2":-89.0444,"dy":0.0017,"dx":0.0017,"nx":28,"ny":28,"refTime":"2024-03-21T21:00:00:Z","depth":0,"parameterNumber":2,"parameterNumberName":"U-component_of_WINDS"},"data":[0,0,0,0,0,0,0,0,0,0,0,0,0,0,0,0,0,0,0,0,0,0,0,0,0,0,0,0,0,0,0,0,0,0,0,0,0,0,0,0,0,0,0,0,0,0,0,0,0,0,0,0,0,0,0,0,0,0,-1.8807,-1.8807,0,-1.8835,-1.8835,-1.8836,-1.8764,-1.8761,-1.8759,-1.8757,-1.8788,-1.8791,-1.8794,0,0,0,0,0,0,0,0,0,0,0,0,0,-1.8694,-1.8696,-1.8807,-1.8807,-1.8808,-1.8835,-1.8835,-1.8836,-1.8764,-1.8761,-1.8759,-1.8756,-1.8787,-1.8791,-1.8794,0,0,0,0,0,0,0,0,0,0,0,0,0,-1.8735,-1.8697,-1.8807,-1.8775,-1.8773,-1.8835,-1.8835,-1.8836,-1.8765,-1.8761,-1.8758,-1.8755,-1.8786,-1.8791,-1.8795,-1.889,0,0,-1.8808,-1.881,0,0,0,0,0,0,0,0,-1.8732,-1.8739,-1.8779,-1.8777,-1.8775,-1.8792,-1.8807,-1.8854,-1.8765,-1.8768,-1.8757,-1.8753,-1.8793,-1.8796,-1.8809,-1.8892,-1.8893,-1.8809,-1.8811,-1.8813,-1.8815,0,0,0,0,0,0,0,-1.873,-1.8737,-1.8818,-1.878,-1.8777,-1.876,-1.8762,-1.8815,-1.8799,-1.8767,-1.8762,-1.8766,-1.8791,-1.8805,-1.8809,-1.8893,-1.8809,-1.8813,-1.8815,-1.8817,-1.9056,-1.9059,0,0,0,0,0,0,-1.873,-1.8735,-1.8817,-1.8819,-1.8745,-1.8765,-1.8767,-1.879,-1.8798,-1.8796,-1.8769,-1.8763,-1.8799,-1.8804,-1.881,-1.8923,-1.8813,-1.8817,-1.882,-1.9052,-1.9057,-1.9061,0,0,0,0,0,0,-1.8728,-1.8738,-1.8816,-1.8776,-1.8784,-1.877,-1.8797,-1.8792,-1.8807,-1.8799,-1.8796,-1.8787,-1.8797,-1.8804,-1.8871,-1.8923,-1.8819,-1.8823,-1.9048,-1.9054,-1.9059,-1.9149,0,0,0,0,0,0,-1.8725,-1.8738,-1.8774,-1.8777,-1.8787,-1.8876,-1.88,-1.8795,-1.8814,-1.8806,-1.8815,-1.8813,-1.8795,-1.8864,-1.8875,-1.8927,-1.8827,-1.9043,-1.905,-1.9057,-1.9141,-1.9157,-1.917,0,0,0,0,0,-1.8722,-1.8798,-1.8776,-1.8786,-1.8831,-1.8879,-1.8885,-1.8861,-1.8819,-1.8855,-1.885,-1.8813,-1.8915,-1.8872,-1.8883,-1.8938,-1.904,-1.9048,-1.9056,-1.9135,-1.9154,-1.917,0,0,0,0,0,0,-1.8803,-1.8798,-1.8773,-1.8853,-1.8867,-1.8867,-1.8912,-1.8881,-1.8908,-1.8899,-1.8869,-1.8872,-1.8945,-1.8947,-1.8899,-1.903,-1.897,-1.8981,-1.9026,-1.9044,-1.9058,-1.9057,-1.8831,0,0,0,0,0,-1.883,-1.8868,-1.8863,-1.8934,-1.8942,-1.8926,-1.8946,-1.8926,-1.8939,-1.8945,-1.8945,-1.896,-1.8995,-1.902,-1.9052,-1.9141,-1.9142,-1.9183,-1.9198,-1.921,-1.922,-1.9269,-1.9287,-1.9088,-1.9088,-1.9088,0,0,-1.8886,-1.8889,-1.8915,-1.895,-1.8959,-1.9,-1.8931,-1.8978,-1.9009,-1.8952,-1.9016,-1.9016,-1.9031,-1.911,-1.9144,-1.9114,-1.9275,-1.922,-1.923,-1.9234,-1.9279,-1.9298,-1.9315,-1.9094,-1.9093,-1.9092,0,0,-1.9011,-1.9016,-1.9077,-1.9086,-1.9099,-1.9088,-1.9102,-1.9106,-1.9105,-1.9167,-1.9125,-1.9162,-1.9223,-1.9236,-1.925,-1.9379,-1.9347,-1.939,-1.9467,-1.9514,-1.953,-1.9544,-1.9591,-1.9608,-1.94,-1.9401,-1.9401,0,-1.9081,-1.9141,-1.9112,-1.9162,-1.9179,-1.9128,-1.9189,-1.92,-1.9224,-1.9237,-1.9202,-1.9278,-1.9285,-1.9366,-1.9397,-1.941,-1.9427,-1.939,-1.953,-1.9543,-1.9556,-1.9601,-1.9619,-1.9406,-1.9405,-1.9405,-1.9404,0,-1.9226,-1.9269,-1.9316,-1.9339,-1.9361,-1.9417,-1.9397,-1.9423,-1.9401,-1.9393,-1.9458,-1.9463,-1.9496,-1.9513,-1.9492,-1.9592,-1.9573,-1.9535,-1.9474,-1.9581,-1.9623,-1.9639,-1.9414,-1.9412,-1.941,-1.9409,0,0,-1.9405,-1.941,-1.9428,-1.9438,-1.9448,-1.9481,-1.9534,-1.9565,-1.9589,-1.9606,-1.9651,-1.9704,-1.9668,-1.9685,-1.9665,-1.9706,-1.981,-1.9663,-1.9663,-1.9691,-1.9921,-1.9951,-1.9971,-1.9787,-1.979,-1.9793,-1.992,0,-1.953,-1.962,-1.9595,-1.9687,-1.9726,-1.9678,-1.9724,-1.9736,-1.973,-1.9764,-1.9757,-1.9795,-1.9745,-1.9755,-1.9793,-1.9789,-1.9856,-1.9779,-1.983,-1.9832,-1.983,-1.9993,-2.0025,-2.0145,-1.9936,-1.9939,-1.9941,0,-1.9687,-1.971,-1.9806,-1.9809,-1.9825,-1.9867,-1.9894,-1.9926,-1.9938,-1.9931,-1.9949,-1.992,-1.9974,-1.9911,-1.9985,-1.9934,-1.9953,-1.9954,-1.9958,-1.9963,-1.9895,-2.0005,-2.0183,-2.0202,-1.9966,-1.9964,-1.9962,0,-1.981,-1.9865,-1.9929,-1.9939,-1.9944,-1.9975,-1.9979,-1.9988,-2.0008,-2.0031,-2.0045,-2.0074,-2.0091,-2.0114,-2.0095,-2.0051,-2.0172,-2.0108,-2.0169,-2.017,-2.0199,-2.0197,-2.0384,-2.0208,-2.0208,-2.0207,-2.0207,0,-1.9953,-2.0014,-1.9984,-2.0024,-2.0091,-2.0061,-2.0128,-2.0126,-2.0134,-2.0174,-2.0133,-2.0171,-2.0142,-2.0177,-2.0162,-2.0226,-2.0234,-2.023,-2.0226,-2.0235,-2.0236,-2.0249,-2.0241,-2.0212,-2.0211,-2.021,-2.0209,0,-2.0103,-2.0085,-2.0152,-2.0151,-2.0153,-2.0202,-2.0202,-2.0239,-2.0229,-2.0279,-2.0289,-2.0275,-2.0315,-2.0297,-2.0339,-2.0328,-2.0411,-2.0395,-2.0407,-2.0404,-2.0466,-2.0462,-2.067,-2.0696,-2.0501,-2.0503,-2.0505,0,-2.0196,-2.0242,-2.0246,-2.0268,-2.0275,-2.0312,-2.0332,-2.0305,-2.0328,-2.0345,-2.0381,-2.0416,-2.0444,-2.0509,-2.0503,-2.0535,-2.052,-2.0591,-2.0525,-2.0533,-2.0523,-2.0522,-2.0527,-2.0605,-2.0607,-2.0609,-2.0611,0,-2.0365,-2.0353,-2.0384,-2.0411,-2.0436,-2.0457,-2.0474,-2.0495,-2.0468,-2.0496,-2.0535,-2.0557,-2.0599,-2.0635,-2.0663,-2.0668,-2.0636,-2.0631,-2.0647,-2.0658,-2.0664,-2.0663,-2.0445,-2.0627,-2.0625,-2.0624,-2.0623,-2.0623,-2.049,-2.0528,-2.0537,-2.0572,-2.0582,-2.0599,-2.0634,-2.0628,-2.066,-2.0692,-2.0674,-2.072,-2.0731,-2.0765,-2.0774,-2.0811,-2.0783,-2.0806,-2.0812,-2.0819,-2.0828,-2.0656,-2.0816,-2.0815,-2.0815,-2.0814,-2.0814,0,-2.0658,-2.0661,-2.0693,-2.0718,-2.0746,-2.0711,-2.0728,-2.0754,-2.0795,-2.0808,-2.0835,-2.0881,-2.0916,-2.0912,-2.0945,-2.0975,-2.0961,-2.0985,-2.0983,-2.0985,-2.085,-2.0834,-2.0995,-2.0995,-2.0995,-2.0995,-2.0995,-2.0995,-2.0748,-2.0812,-2.0802,-2.0869,-2.0872,-2.0917,-2.0929,-2.0945,-2.0955,-2.1008,-2.1036,-2.1033,-2.1039,-2.1072,-2.1102,-2.11,-2.1115,-2.1145,-2.1138,-2.1012,-2.0994,-2.0977,-2.0962,-2.1148,-2.1148,-2.1269,-2.127,-2.1271]},{"header":{"parameterUnit":"m.s-1","parameterCategory":1,"la1":30.2991,"la2":30.254,"lo1":-89.0895,"lo2":-89.0444,"dy":0.0017,"dx":0.0017,"nx":28,"ny":28,"refTime":"2024-03-21T21:00:00:Z","depth":0,"parameterNumber":3,"parameterNumberName":"V-component_of_WINDS"},"data":[0,0,0,0,0,0,0,0,0,0,0,0,0,0,0,0,0,0,0,0,0,0,0,0,0,0,0,0,0,0,0,0,0,0,0,0,0,0,0,0,0,0,0,0,0,0,0,0,0,0,0,0,0,0,0,0,0,0,-0.9127,-0.9127,0,-0.9149,-0.9149,-0.915,-0.9134,-0.9133,-0.9132,-0.9132,-0.9153,-0.9154,-0.9155,0,0,0,0,0,0,0,0,0,0,0,0,0,-0.9069,-0.907,-0.9127,-0.9127,-0.9128,-0.9149,-0.9149,-0.915,-0.9134,-0.9133,-0.9132,-0.9131,-0.9152,-0.9154,-0.9155,0,0,0,0,0,0,0,0,0,0,0,0,0,-0.9093,-0.9071,-0.9127,-0.9122,-0.9122,-0.9149,-0.9149,-0.915,-0.9134,-0.9133,-0.9132,-0.9131,-0.9152,-0.9154,-0.9156,-0.9188,0,0,-0.9161,-0.9162,0,0,0,0,0,0,0,0,-0.9092,-0.9095,-0.9123,-0.9123,-0.9122,-0.9138,-0.9137,-0.9162,-0.9134,-0.9129,-0.9132,-0.913,-0.9148,-0.9151,-0.9157,-0.9189,-0.919,-0.9161,-0.9162,-0.9163,-0.9164,0,0,0,0,0,0,0,-0.909,-0.9094,-0.9136,-0.9123,-0.9123,-0.9118,-0.9121,-0.9141,-0.9144,-0.913,-0.9129,-0.9132,-0.9148,-0.9155,-0.9157,-0.919,-0.9161,-0.9163,-0.9164,-0.9165,-0.9249,-0.925,0,0,0,0,0,0,-0.9089,-0.9093,-0.9135,-0.9136,-0.9104,-0.912,-0.9123,-0.9134,-0.9144,-0.9145,-0.9132,-0.9131,-0.9153,-0.9155,-0.9158,-0.9196,-0.9163,-0.9165,-0.9166,-0.9247,-0.9249,-0.925,0,0,0,0,0,0,-0.9088,-0.9093,-0.9134,-0.9114,-0.9119,-0.9122,-0.9135,-0.9135,-0.9142,-0.9146,-0.9147,-0.9139,-0.9152,-0.9155,-0.918,-0.9197,-0.9166,-0.9167,-0.9246,-0.9248,-0.9249,-0.9273,0,0,0,0,0,0,-0.9086,-0.9093,-0.9105,-0.9115,-0.912,-0.9157,-0.9136,-0.9136,-0.9145,-0.9143,-0.9153,-0.9153,-0.9151,-0.9178,-0.9182,-0.9199,-0.9169,-0.9245,-0.9247,-0.9249,-0.9271,-0.9276,-0.9279,0,0,0,0,0,-0.9084,-0.9111,-0.9106,-0.9111,-0.9137,-0.9158,-0.9161,-0.9159,-0.9146,-0.9159,-0.9162,-0.9153,-0.9194,-0.918,-0.9185,-0.9203,-0.9244,-0.9246,-0.9249,-0.9269,-0.9275,-0.9279,0,0,0,0,0,0,-0.9104,-0.9112,-0.9107,-0.9138,-0.9147,-0.9155,-0.9171,-0.9165,-0.9177,-0.9175,-0.9171,-0.9173,-0.9199,-0.9203,-0.9188,-0.9234,-0.9217,-0.922,-0.9231,-0.9236,-0.924,-0.9239,-0.917,0,0,0,0,0,-0.9111,-0.9129,-0.9135,-0.9162,-0.9167,-0.9168,-0.9177,-0.9174,-0.9184,-0.9188,-0.9192,-0.9201,-0.9216,-0.9226,-0.924,-0.9271,-0.9273,-0.9285,-0.9289,-0.9293,-0.9296,-0.9312,-0.9318,-0.9258,-0.9258,-0.9258,0,0,-0.9128,-0.9135,-0.9146,-0.9166,-0.9173,-0.919,-0.9172,-0.9191,-0.9203,-0.919,-0.9215,-0.9218,-0.9228,-0.9256,-0.9268,-0.926,-0.9313,-0.9296,-0.9299,-0.93,-0.9316,-0.9321,-0.9326,-0.926,-0.926,-0.926,0,0,-0.9167,-0.9174,-0.9197,-0.9204,-0.9215,-0.9215,-0.9221,-0.9229,-0.9231,-0.9256,-0.9246,-0.926,-0.9286,-0.9294,-0.9301,-0.9341,-0.9333,-0.9346,-0.9368,-0.9384,-0.9388,-0.9392,-0.9407,-0.9412,-0.9349,-0.9349,-0.9349,0,-0.9186,-0.9212,-0.9209,-0.9229,-0.9238,-0.9227,-0.9249,-0.9256,-0.9271,-0.9277,-0.9267,-0.9299,-0.9305,-0.9334,-0.9344,-0.935,-0.9356,-0.9345,-0.9388,-0.9392,-0.9396,-0.9409,-0.9415,-0.935,-0.935,-0.935,-0.935,0,-0.9235,-0.9253,-0.927,-0.9285,-0.9295,-0.9316,-0.9316,-0.9326,-0.9322,-0.9324,-0.9348,-0.9354,-0.9369,-0.9376,-0.9372,-0.9404,-0.9399,-0.9389,-0.9371,-0.9403,-0.9416,-0.9421,-0.9352,-0.9352,-0.9351,-0.9351,0,0,-0.9288,-0.93,-0.9306,-0.9312,-0.9323,-0.9337,-0.9357,-0.9371,-0.9381,-0.9391,-0.9407,-0.9429,-0.9419,-0.9427,-0.9424,-0.9438,-0.9469,-0.9426,-0.9426,-0.9434,-0.9505,-0.9513,-0.9519,-0.9464,-0.9465,-0.9465,-0.9504,0,-0.9327,-0.9363,-0.936,-0.9394,-0.941,-0.9399,-0.9417,-0.9425,-0.9426,-0.944,-0.9441,-0.9457,-0.9443,-0.9447,-0.9461,-0.9463,-0.9483,-0.946,-0.9479,-0.9479,-0.9477,-0.9526,-0.9534,-0.957,-0.9509,-0.951,-0.951,0,-0.9378,-0.9391,-0.9426,-0.9433,-0.944,-0.9456,-0.9469,-0.9482,-0.949,-0.949,-0.9499,-0.9493,-0.9512,-0.9494,-0.9521,-0.9505,-0.9512,-0.9514,-0.9515,-0.9517,-0.9497,-0.9529,-0.9582,-0.9587,-0.9518,-0.9518,-0.9517,0,-0.9413,-0.9438,-0.9463,-0.9468,-0.9478,-0.9489,-0.9493,-0.9501,-0.9509,-0.952,-0.9526,-0.9539,-0.9546,-0.9556,-0.9553,-0.954,-0.958,-0.9562,-0.958,-0.9581,-0.959,-0.9589,-0.9645,-0.9594,-0.9594,-0.9594,-0.9594,0,-0.9458,-0.948,-0.9478,-0.9493,-0.9517,-0.9513,-0.9537,-0.954,-0.9546,-0.9561,-0.9552,-0.9566,-0.9562,-0.9575,-0.9573,-0.9595,-0.9598,-0.9598,-0.9598,-0.9599,-0.9599,-0.9605,-0.9602,-0.9595,-0.9595,-0.9595,-0.9594,0,-0.9502,-0.9502,-0.9527,-0.9534,-0.9536,-0.9553,-0.9558,-0.9572,-0.9572,-0.9591,-0.9595,-0.9596,-0.9611,-0.9609,-0.9626,-0.9625,-0.9652,-0.9648,-0.965,-0.9649,-0.9667,-0.9666,-0.9728,-0.9736,-0.968,-0.9681,-0.9681,0,-0.9531,-0.9547,-0.9555,-0.9565,-0.957,-0.9585,-0.9594,-0.959,-0.96,-0.961,-0.9622,-0.9637,-0.9648,-0.9673,-0.9675,-0.9687,-0.9684,-0.9705,-0.9686,-0.9687,-0.9684,-0.9683,-0.9685,-0.9709,-0.9709,-0.971,-0.971,0,-0.9582,-0.958,-0.9594,-0.9607,-0.9618,-0.9628,-0.9637,-0.9645,-0.9642,-0.9653,-0.9669,-0.9678,-0.9695,-0.9709,-0.9721,-0.9725,-0.9717,-0.9716,-0.9721,-0.9723,-0.9724,-0.9724,-0.966,-0.9715,-0.9715,-0.9714,-0.9714,-0.9714,-0.9619,-0.9633,-0.9641,-0.9656,-0.9662,-0.9671,-0.9684,-0.9686,-0.9699,-0.9713,-0.9709,-0.9727,-0.9734,-0.9749,-0.9754,-0.9767,-0.9759,-0.9767,-0.9769,-0.977,-0.9773,-0.9721,-0.9769,-0.9769,-0.9769,-0.9769,-0.9769,0,-0.9669,-0.9674,-0.9687,-0.9701,-0.9712,-0.9704,-0.9713,-0.9723,-0.9739,-0.9746,-0.9758,-0.9775,-0.9789,-0.9791,-0.9804,-0.9814,-0.9811,-0.9818,-0.9817,-0.9818,-0.9779,-0.9773,-0.982,-0.982,-0.982,-0.982,-0.982,-0.982,-0.9697,-0.972,-0.972,-0.9746,-0.975,-0.9767,-0.9773,-0.9781,-0.9787,-0.9807,-0.9818,-0.982,-0.9825,-0.9838,-0.985,-0.985,-0.9855,-0.9863,-0.9862,-0.9826,-0.9821,-0.9816,-0.9811,-0.9865,-0.9865,-0.99,-0.99,-0.9901]}]]